Location: Unspecified
(0.0000°N, 0.0000°E)
Time: 01:21:03
(UTC+00:00)

OV1 2 - Visible Passes

Search period start: 13 June 2025 00:00
Search period end: 23 June 2025 00:00
Orbit: 396 x 2150 km, 144.2° (Epoch: 11 June)

Date Brightness Start Highest point End Pass type
(mag) Time Alt. Az. Time Alt. Az. Time Alt. Az.
13 Jun 9.3 18:15:02 10° ESE 18:24:16 60° NNE 18:35:19 10° NW visible
13 Jun 8.9 20:04:16 40° SSE 20:07:25 57° SW 20:17:42 10° WNW visible
13 Jun 10.5 21:55:13 12° WSW 21:55:13 12° WSW 21:56:26 10° WSW visible
14 Jun 9.4 18:17:08 10° ESE 18:26:01 54° NNE 18:36:49 10° NW visible
14 Jun 8.7 20:06:27 45° SSE 20:09:10 64° SW 20:19:25 10° WNW visible
14 Jun 10.5 21:57:23 13° WSW 21:57:23 13° WSW 21:58:40 10° WSW visible
15 Jun 9.5 18:19:16 10° E 18:27:48 48° NNE 18:38:15 10° NW visible
15 Jun 8.5 20:08:38 51° SSE 20:10:55 71° SW 20:21:05 10° WNW visible
15 Jun 10.4 21:59:34 13° WSW 21:59:34 13° WSW 22:00:49 10° W visible
16 Jun 9.5 18:21:29 10° E 18:29:36 43° NNE 18:39:39 10° NW visible
16 Jun 8.3 20:10:48 57° SE 20:12:43 79° SW 20:22:43 10° WNW visible
16 Jun 10.4 22:01:45 13° WSW 22:01:45 13° WSW 22:02:55 10° W visible
17 Jun 9.6 18:23:44 10° E 18:31:27 38° NNE 18:40:59 10° NW visible
17 Jun 8.1 20:12:58 63° SE 20:14:31 87° SSW 20:24:19 10° WNW visible
17 Jun 10.4 22:03:55 13° W 22:03:55 13° W 22:04:58 10° W visible
18 Jun 9.8 18:26:03 10° E 18:33:19 33° NNE 18:42:18 10° NNW visible
18 Jun 8.0 20:15:08 67° ESE 20:16:21 83° NNE 20:25:53 10° NW visible
18 Jun 10.4 22:06:05 13° W 22:06:05 13° W 22:06:58 10° W visible
19 Jun 9.9 18:28:26 10° E 18:35:13 29° NNE 18:43:33 10° NNW visible
19 Jun 8.0 20:17:18 67° ENE 20:18:13 74° NNE 20:27:24 10° NW visible
19 Jun 10.4 22:08:15 12° W 22:08:15 12° W 22:08:55 10° W visible
20 Jun 9.9 18:30:53 10° ENE 18:37:09 25° NNE 18:44:46 10° NNW visible
20 Jun 8.1 20:19:28 62° NE 20:20:06 64° NNE 20:28:53 10° NW visible
20 Jun 10.4 22:10:23 12° W 22:10:23 12° W 22:10:51 10° W visible
21 Jun 9.9 18:33:26 10° ENE 18:39:06 22° NNE 18:45:55 10° NNW visible
21 Jun 8.2 20:21:37 54° NE 20:22:02 55° NNE 20:30:21 10° NW visible
21 Jun 10.4 22:12:33 11° WNW 22:12:33 11° WNW 22:12:44 10° WNW visible
22 Jun 10.0 18:36:05 10° ENE 18:41:05 19° NNE 18:46:59 10° NNW visible
22 Jun 8.4 20:23:46 46° NNE 20:23:59 46° NNE 20:31:47 10° NW visible
